Regional Weather Roundup
Issued by NWS State College, PA

Home | Current Version | Previous Version | Text Only | Print | Product List | Glossary On
Versions: 1 2 3 4 5 6 7 8 9 10 11 12 13 14 15 16 17 18 19 20 21 22 23 24 25 26 27 28 29 30 31 32 33 34 35 36 37 38 39 40 41 42 43 44 45 46 47 48 49 50
736
ASUS41 KCTP 221610
RWRCTP

REGIONAL WEATHER ROUNDUP
NATIONAL WEATHER SERVICE STATE COLLEGE PA
1100 AM EST SUN JAN 22 2017

Note: "fair" indicates few or no clouds below 12,000 feet with no
significant weather and/or obstructions to visibility.

* = STATION THAT DOES NOT REPORT PRECIPITATION /E.G. RAIN...SNOW...ETC/
    THUNDER OR FOG.

PAZ002>004-007>009-013>016-020>023-029>032-221700-
WESTERN PENNSYLVANIA

CITY           SKY/WX    TMP DP  RH WIND       PRES   REMARKS
ERIE           CLOUDY    56  49  77 SE3       29.68R
MEADVILLE      CLOUDY    53  47  79 VRB3      29.67F
FRANKLIN*        N/A     50  46  87 E3        29.69F
NEW CASTLE     FAIR      52  50  93 E3        29.66F
BEAVER COUNTY  NOT AVBL
BUTLER*        CLOUDY    52  48  87 NE6       29.68F
PITTSBURGH INT CLOUDY    54  50  86 E3        29.63F
PITTSBURGH     CLOUDY    57  45  64 NE6       29.63F
INDIANA*       CLOUDY    57  46  67 E7        29.68F
LATROBE        PTSUNNY   48  48 100 VRB3      29.65F
WASHINGTON CO* CLOUDY    55  48  76 CALM      29.64S
$$

PAZ004>006-010>012-017>019-024>028-033>037-041-042-045-046-049>053-221700-
CENTRAL PENNSYLVANIA

CITY           SKY/WX    TMP DP  RH WIND       PRES   REMARKS
BRADFORD       CLOUDY    50  48  93 E5        29.70R
DUBOIS         CLOUDY    55  45  68 E7        29.67F
CLEARFIELD     FOG       43  43 100 NE5       29.70F VSB<1/4
JOHNSTOWN      SUNNY     53  46  77 E5        29.65F
ALTOONA        FOG       43  41  93 CALM      29.70F VSB 1/4
STATE COLLEGE  FOG       39  39 100 CALM      29.72S VSB 1/16
WILLIAMSPORT   CLOUDY    43  40  89 W3        29.74F FOG
SELINSGROVE    CLOUDY    43  41  93 CALM      29.75S
FT INDIANTOWN  CLOUDY    42  42 100 NE3       29.73S FOG
CAPITAL CITY   FOG       45  42  89 CALM      29.74S VSB 1
HARRISBURG     CLOUDY    44  44 100 W3        29.74S FOG
YORK           CLOUDY    43  43 100 N3        29.73R FOG
$$

PAZ038>040-043-044-047-048-054-055-060>062-067>071-221700-
EASTERN PENNSYLVANIA

CITY           SKY/WX    TMP DP  RH WIND       PRES   REMARKS
SCRANTON       FOG       43  43 100 CALM      29.73R VSB<1/4
MOUNT POCONO   CLOUDY    48  46  93 SE10      29.71S FOG
ALLENTOWN      FOG       43  41  93 NW5       29.74F VSB 1/4
QUAKERTOWN*    CLOUDY    45  45 100 N5        29.74F VSB 1
READING        FOG       42  42 100 N3        29.73F VSB 1/8
LANCASTER      FOG       43  43 100 N6        29.73F VSB 1/2
COATESVILLE    CLOUDY    45  45 100 CALM      29.73F FOG
POTTSTOWN      FOG       43  43 100 N6        29.74F VSB 1
BLUE BELL      CLOUDY    43  43 100 CALM      29.72F
DOYLESTOWN     CLOUDY    47  46  97 NE5       29.72F FOG
WILLOW GROVE   NOT AVBL
NORTH PHILA    CLOUDY    48  46  93 NE5       29.75S FOG
PHILADELPHIA   CLOUDY    48  46  93 N6        29.74S FOG
$$




USA.gov is the U.S. government's official web portal to all federal, state and local government web resources and services.